Location: Cucq
(50.4773°N, 1.6202°E)
Time: 21:19:55
(UTC+00:00)

PSLV R/B - Pass Details

Date: 07 August 2020
Orbit: 598 x 701 km, 97.9° (Epoch: 21 September)

Event Time Altitude Azimuth Distance (km) Brightness Sun altitude
Rises 00:40:47 0° 12° (NNE) 3,014 8.6 -22.6°
Reaches altitude 10° 00:43:00 10° 10° (N) 2,112 7.4 -22.5°
Maximum altitude 00:47:36 70° 288° (WNW) 731 3.8 -22.3°
Enters shadow 00:48:26 56° 231° (SW) 816 3.8 -22.3°
